Location: Sternwarte ZA, Rosenfeld-Brittheim
(48.2889°N, 8.6789°E)
Time: 06:05:47
(UTC+02:00)

ISS - Pass Details

Date: 21 September 2020
Orbit: 419 x 420 km, 51.6° (Epoch: 21 September)

Event Time Altitude Azimuth Distance (km) Brightness Sun altitude
Rises 22:28:38 0° 277° (W) 2,368 0.9 -29.2°
Reaches altitude 10° 22:30:48 10° 284° (WNW) 1,504 -0.2 -29.5°
Enters shadow 22:31:26 15° 288° (WNW) 1,258 -0.6 -29.6°
